Voltar ao catálogo

STARLINK-37943

AtivoComunicaçõesSSO
NORAD 69666·PAYLOAD·🇺🇸 United States

Lançado Jun 21, 2026 de Vandenberg Space Force Base

Loading…

Próximas Passagens (próximas 24 horas)

TLE

AtualizadoSource: CelesTrak SupGP

Época: Sep 15, 2026, 04:20 UTC

1 69666C 26143T   26258.18104167 -.00045228  00000+0 -14035-2 0  2585
2 69666  97.2839 301.4281 0000943  91.6108   0.4704 15.33474111    19

Acompanhe STARLINK-37943 em tempo real com AllMySat

Download on the App Store